Location: Croydon
(51.3762°N, 0.0982°W)
Time: 21:46:33
(UTC+00:00)

Envisat - Pass Details

Date: 21 February 2019
Orbit: 764 x 766 km, 98.2° (Epoch: 24 March)

Event Time Altitude Azimuth Distance (km) Brightness Sun altitude
Rises 19:55:48 0° 210° (SSW) 3,224 6.4 -23.9°
Reaches altitude 10° 19:58:50 10° 229° (SW) 2,304 5.9 -24.4°
Maximum altitude 20:02:16 18° 272° (W) 1,812 5.7 -24.9°
Drops below altitude 10° 20:05:43 10° 315° (NW) 2,315 6.3 -25.4°
Sets 20:08:47 0° 334° (NNW) 3,247 6.8 -25.9°
